This demonstration page uses our WeatherBlox Daily Observations layout. Learn more.

Left ArrowRight Arrow

Hourly Observations for September 30, 2020

Temp ( °F °C ) Dew Point ( °F °C ) Humidity (%) Winds ( mph kmh ) Pressure ( in mb ) Visibility ( mi km ) Precip ( " mm )
12:51 am 00:51 Clear 66 18.9 30 -1.1 26 26 ESE 6 9 30.01 1016 10 16.0934 0 0
1:51 am 01:51 Clear 65 18.3 30 -1.1 27 27 ESE 6 9 30.01 1016 10 16.0934 0 0
2:51 am 02:51 Clear 65 18.3 31 -0.6 28 28 ESE 8 13 29.99 1016 10 16.0934 0 0
3:51 am 03:51 Clear 65 18.3 31 -0.6 28 28 SSE 6 9 29.98 1015 10 16.0934 0 0
4:51 am 04:51 Clear 63 17.2 31 -0.6 30 30 SE 5 7 29.99 1016 10 16.0934 0 0
5:51 am 05:51 Clear 56 13.3 29 -1.7 36 36 Calm 30.02 1017 10 16.0934 0 0
6:51 am 06:51 Sunny 58 14.4 30 -1.1 35 35 Calm 30.04 1017 10 16.0934 0 0
7:51 am 07:51 Sunny 66 18.9 31 -0.6 27 27 VRB 3 6 30.05 1018 10 16.0934 0 0
8:51 am 08:51 Sunny 74 23.3 32 0 21 21 SE 9 15 30.04 1017 10 16.0934 0 0
9:51 am 09:51 Sunny 79 26.1 32 0 18 18 SE 8 13 30.03 1017 10 16.0934 0 0
10:51 am 10:51 Sunny 84 28.9 32 0 15 15 SSE 7 11 30 1016 10 16.0934 0 0
11:51 am 11:51 Sunny 86 30 31 -0.6 14 14 Calm 29.97 1015 10 16.0934 0 0
12:51 pm 12:51 Sunny 92 33.3 32 0 12 12 VRB 5 7 29.93 1014 10 16.0934 0 0
1:51 pm 13:51 Sunny 94 34.4 30 -1.1 10 10 N 3 6 29.89 1012 10 16.0934 0 0
2:51 pm 14:51 Sunny 96 35.6 27 -2.8 8 8 W 9 15 29.86 1011 10 16.0934 0 0
3:51 pm 15:51 Sunny 96 35.6 26 -3.3 8 8 WNW 9 15 29.84 1010 10 16.0934 0 0
4:51 pm 16:51 Sunny 95 35 26 -3.3 8 8 VRB 6 9 29.84 1010 10 16.0934 0 0
5:51 pm 17:51 Sunny 92 33.3 23 -5 8 8 NW 6 9 29.85 1011 10 16.0934 0 0
6:51 pm 18:51 Clear 84 28.9 22 -5.6 10 10 N 6 9 29.87 1012 10 16.0934 0 0
7:51 pm 19:51 Clear 81 27.2 26 -3.3 13 13 WSW 3 6 29.88 1012 10 16.0934 0 0
8:51 pm 20:51 Clear 74 23.3 24 -4.4 15 15 SE 3 6 29.89 1012 10 16.0934 0 0
9:51 pm 21:51 Clear 70 21.1 22 -5.6 16 16 ENE 3 6 29.91 1013 10 16.0934 0 0
10:51 pm 22:51 Clear 70 21.1 22 -5.6 16 16 E 6 9 29.92 1013 10 16.0934 0 0
11:51 pm 23:51 Clear 69 20.6 25 -3.9 19 19 E 5 7 29.92 1013 10 16.0934 0 0

Powered by AerisWeather